BCS262 OMDB-OBBI

Flight info

Callsign BCS262
Flight time 0h 57m
Altitude 28000
Route OMDB/30L N0395F280 NABI3F NABIX P699 ORMID M556 ORDIG ORDIG1 OBBI/30R
Aircraft B738/M-SDE2E3FGHIRWXY/LB1

Departure

Time 2026-04-20 20:18
Airport Dubai International Airport (OMDB)

Arrival

Time 2026-04-20 21:15
Airport Bahrain International Airport (OBBI)
Time Latitude Longitude Altitude Speed Heading
2026-04-20 19:58 25.26648 55.35420 24 ft 0 kts 30°
2026-04-20 20:06 25.26644 55.35417 21 ft 5 kts 29°
2026-04-20 20:06 25.26572 55.35363 23 ft 9 kts 52°
2026-04-20 20:07 25.26565 55.35351 24 ft 0 kts 78°
2026-04-20 20:07 25.26567 55.35367 23 ft 4 kts 82°
2026-04-20 20:07 25.26558 55.35422 21 ft 11 kts 111°
2026-04-20 20:07 25.26500 55.35490 21 ft 9 kts 155°
2026-04-20 20:08 25.26465 55.35482 21 ft 6 kts 211°
2026-04-20 20:08 25.26411 55.35471 21 ft 9 kts 165°
2026-04-20 20:08 25.26395 55.35480 21 ft 0 kts 148°
2026-04-20 20:10 25.26384 55.35487 21 ft 5 kts 149°
2026-04-20 20:10 25.26338 55.35516 21 ft 9 kts 141°
2026-04-20 20:10 25.26328 55.35536 21 ft 1 kts 81°
2026-04-20 20:11 25.26331 55.35555 21 ft 6 kts 82°
2026-04-20 20:11 25.26331 55.35630 21 ft 13 kts 95°
2026-04-20 20:11 25.26287 55.35738 21 ft 19 kts 122°
2026-04-20 20:11 25.26207 55.35874 22 ft 24 kts 122°
2026-04-20 20:12 25.26114 55.36041 21 ft 24 kts 121°
2026-04-20 20:12 25.26020 55.36211 21 ft 28 kts 121°
2026-04-20 20:12 25.25944 55.36347 21 ft 21 kts 122°
2026-04-20 20:13 25.25770 55.36662 21 ft 27 kts 122°
2026-04-20 20:13 25.25682 55.36825 23 ft 25 kts 119°
2026-04-20 20:13 25.25588 55.36991 22 ft 25 kts 120°
2026-04-20 20:13 25.25497 55.37157 21 ft 22 kts 123°
2026-04-20 20:14 25.25412 55.37308 21 ft 25 kts 121°
2026-04-20 20:14 25.25318 55.37477 21 ft 27 kts 121°
2026-04-20 20:14 25.25238 55.37621 21 ft 22 kts 121°
2026-04-20 20:14 25.25172 55.37728 23 ft 13 kts 141°
2026-04-20 20:15 25.25128 55.37742 21 ft 0 kts 187°
2026-04-20 20:15 25.25126 55.37741 21 ft 1 kts 195°
2026-04-20 20:16 25.25109 55.37730 21 ft 4 kts 221°
2026-04-20 20:16 25.25095 55.37691 21 ft 7 kts 259°
2026-04-20 20:16 25.25097 55.37615 21 ft 13 kts 273°
2026-04-20 20:16 25.25120 55.37503 21 ft 17 kts 286°
2026-04-20 20:17 25.25173 55.37364 22 ft 22 kts 298°
2026-04-20 20:17 25.25258 55.37206 23 ft 26 kts 301°
2026-04-20 20:17 25.25384 55.36980 24 ft 46 kts 301°
2026-04-20 20:17 25.25626 55.36547 21 ft 91 kts 302°
2026-04-20 20:18 25.26082 55.35702 24 ft 167 kts 299°
2026-04-20 20:18 25.26721 55.34381 316 ft 215 kts 296°
2026-04-20 20:18 25.27524 55.32820 768 ft 248 kts 303°
2026-04-20 20:18 25.28521 55.31234 1651 ft 257 kts 304°
2026-04-20 20:19 25.29409 55.29552 2418 ft 256 kts 291°
2026-04-20 20:19 25.29598 55.27539 2078 ft 277 kts 261°
2026-04-20 20:19 25.28782 55.25676 2236 ft 267 kts 233°
2026-04-20 20:19 25.27711 55.24100 2913 ft 253 kts 238°
2026-04-20 20:20 25.26786 55.22411 3631 ft 260 kts 243°
2026-04-20 20:20 25.25920 55.20620 4357 ft 268 kts 245°
2026-04-20 20:20 25.25069 55.18761 5072 ft 274 kts 246°
2026-04-20 20:20 25.24230 55.16841 5802 ft 280 kts 249°
2026-04-20 20:21 25.23700 55.14781 6514 ft 277 kts 263°
2026-04-20 20:21 25.23418 55.12670 7220 ft 278 kts 265°
2026-04-20 20:21 25.23177 55.10553 7932 ft 278 kts 266°
2026-04-20 20:21 25.22926 55.08430 8659 ft 278 kts 265°
2026-04-20 20:22 25.22666 55.06342 9397 ft 278 kts 265°
2026-04-20 20:22 25.22390 55.04225 10115 ft 278 kts 265°
2026-04-20 20:22 25.22105 55.02105 10793 ft 281 kts 264°
2026-04-20 20:22 25.21810 54.99927 11253 ft 292 kts 264°
2026-04-20 20:23 25.21502 54.97678 11755 ft 301 kts 263°
2026-04-20 20:23 25.21184 54.95357 12254 ft 310 kts 263°
2026-04-20 20:23 25.20919 54.92961 12756 ft 317 kts 266°
2026-04-20 20:23 25.20748 54.90510 13272 ft 324 kts 267°
2026-04-20 20:24 25.20592 54.87995 13733 ft 333 kts 267°
2026-04-20 20:24 25.20427 54.85434 14068 ft 343 kts 266°
2026-04-20 20:24 25.20243 54.82770 14428 ft 352 kts 266°
2026-04-20 20:24 25.20048 54.80035 14786 ft 361 kts 266°
2026-04-20 20:25 25.19847 54.77247 15152 ft 368 kts 266°
2026-04-20 20:25 25.19783 54.74401 15509 ft 374 kts 272°
2026-04-20 20:25 25.19943 54.71511 15888 ft 379 kts 275°
2026-04-20 20:25 25.20167 54.68589 16261 ft 384 kts 275°
2026-04-20 20:26 25.20389 54.65633 16637 ft 388 kts 274°
2026-04-20 20:26 25.20590 54.62637 17020 ft 392 kts 274°
2026-04-20 20:26 25.20772 54.59651 17410 ft 395 kts 274°
2026-04-20 20:26 25.20946 54.56616 17791 ft 397 kts 273°
2026-04-20 20:27 25.21121 54.53557 18174 ft 399 kts 273°
2026-04-20 20:27 25.21293 54.50492 18512 ft 401 kts 273°
2026-04-20 20:27 25.21465 54.47409 18853 ft 402 kts 273°
2026-04-20 20:27 25.21637 54.44323 19198 ft 403 kts 274°
2026-04-20 20:28 25.22184 54.41276 19510 ft 406 kts 287°
2026-04-20 20:28 25.23186 54.38354 19900 ft 406 kts 291°
2026-04-20 20:28 25.24265 54.35472 20244 ft 407 kts 291°
2026-04-20 20:28 25.25289 54.32593 20608 ft 407 kts 289°
2026-04-20 20:29 25.26256 54.29645 20972 ft 407 kts 288°
2026-04-20 20:29 25.27165 54.26682 21343 ft 407 kts 287°
2026-04-20 20:29 25.28043 54.23702 21716 ft 407 kts 287°
2026-04-20 20:29 25.28908 54.20724 22093 ft 407 kts 287°
2026-04-20 20:30 25.29774 54.17742 22481 ft 407 kts 287°
2026-04-20 20:30 25.30645 54.14762 22864 ft 406 kts 287°
2026-04-20 20:30 25.31466 54.11814 23244 ft 406 kts 284°
2026-04-20 20:30 25.32161 54.08798 23602 ft 405 kts 282°
2026-04-20 20:31 25.32791 54.05762 23931 ft 404 kts 282°
2026-04-20 20:31 25.33400 54.02731 24265 ft 404 kts 282°
2026-04-20 20:31 25.34011 53.99696 24597 ft 404 kts 282°
2026-04-20 20:31 25.34628 53.96670 24945 ft 403 kts 282°
2026-04-20 20:32 25.35254 53.93640 25289 ft 403 kts 282°
2026-04-20 20:32 25.35884 53.90618 25633 ft 403 kts 282°
2026-04-20 20:32 25.36517 53.87598 25993 ft 403 kts 282°
2026-04-20 20:32 25.37150 53.84580 26350 ft 403 kts 282°
2026-04-20 20:33 25.37777 53.81598 26708 ft 402 kts 282°
2026-04-20 20:33 25.38410 53.78585 27077 ft 402 kts 282°
2026-04-20 20:33 25.39042 53.75574 27449 ft 402 kts 283°
2026-04-20 20:33 25.39672 53.72566 27817 ft 402 kts 283°
2026-04-20 20:34 25.40311 53.69517 27793 ft 411 kts 283°
2026-04-20 20:34 25.40960 53.66411 27838 ft 418 kts 283°
2026-04-20 20:34 25.41623 53.63241 27838 ft 425 kts 283°
2026-04-20 20:34 25.42293 53.60028 27833 ft 432 kts 283°
2026-04-20 20:35 25.42973 53.56767 27843 ft 438 kts 283°
2026-04-20 20:35 25.43661 53.53466 27832 ft 443 kts 283°
2026-04-20 20:35 25.44355 53.50128 27835 ft 447 kts 283°
2026-04-20 20:35 25.45057 53.46750 27833 ft 451 kts 283°
2026-04-20 20:36 25.45762 53.43352 27828 ft 455 kts 283°
2026-04-20 20:36 25.46470 53.39933 27826 ft 457 kts 283°
2026-04-20 20:36 25.47181 53.36498 27832 ft 459 kts 283°
2026-04-20 20:36 25.47892 53.33055 27822 ft 459 kts 283°
2026-04-20 20:37 25.48605 53.29601 27829 ft 460 kts 283°
2026-04-20 20:37 25.49306 53.26198 27821 ft 460 kts 282°
2026-04-20 20:37 25.50016 53.22748 27823 ft 460 kts 282°
2026-04-20 20:37 25.50724 53.19298 27821 ft 460 kts 282°
2026-04-20 20:38 25.51432 53.15849 27823 ft 459 kts 282°
2026-04-20 20:38 25.52138 53.12399 27831 ft 459 kts 282°
2026-04-20 20:38 25.52844 53.08946 27820 ft 459 kts 282°
2026-04-20 20:38 25.53547 53.05503 27824 ft 458 kts 282°
2026-04-20 20:39 25.54249 53.02054 27821 ft 458 kts 282°
2026-04-20 20:39 25.54948 52.98615 27821 ft 458 kts 282°
2026-04-20 20:39 25.55648 52.95177 27825 ft 457 kts 282°
2026-04-20 20:39 25.56366 52.91740 27825 ft 457 kts 284°
2026-04-20 20:40 25.57542 52.88471 27819 ft 459 kts 297°
2026-04-20 20:40 25.59095 52.85391 27852 ft 459 kts 297°
2026-04-20 20:40 25.60644 52.82291 27850 ft 458 kts 297°
2026-04-20 20:40 25.62174 52.79184 27828 ft 458 kts 297°
2026-04-20 20:41 25.63665 52.76115 27838 ft 458 kts 296°
2026-04-20 20:41 25.65169 52.72995 27835 ft 458 kts 296°
2026-04-20 20:41 25.66664 52.69878 27830 ft 458 kts 296°
2026-04-20 20:41 25.68156 52.66761 27829 ft 458 kts 296°
2026-04-20 20:42 25.69649 52.63637 27831 ft 457 kts 296°
2026-04-20 20:42 25.71142 52.60515 27827 ft 457 kts 296°
2026-04-20 20:42 25.72628 52.57406 27831 ft 457 kts 296°
2026-04-20 20:42 25.74119 52.54286 27829 ft 457 kts 296°
2026-04-20 20:43 25.75605 52.51173 27832 ft 456 kts 296°
2026-04-20 20:43 25.77073 52.48097 27833 ft 456 kts 296°
2026-04-20 20:43 25.78556 52.44985 27831 ft 456 kts 296°
2026-04-20 20:43 25.80040 52.41869 27830 ft 456 kts 296°
2026-04-20 20:44 25.81519 52.38759 27830 ft 455 kts 296°
2026-04-20 20:44 25.82996 52.35649 27827 ft 455 kts 296°
2026-04-20 20:44 25.84476 52.32535 27826 ft 455 kts 296°
2026-04-20 20:44 25.85956 52.29423 27828 ft 455 kts 296°
2026-04-20 20:45 25.87526 52.26424 27801 ft 458 kts 304°
2026-04-20 20:45 25.89661 52.23776 27869 ft 459 kts 311°
2026-04-20 20:45 25.91867 52.21212 27823 ft 460 kts 310°
2026-04-20 20:45 25.94068 52.18624 27823 ft 460 kts 310°
2026-04-20 20:46 25.96251 52.16026 27821 ft 460 kts 310°
2026-04-20 20:46 25.98422 52.13418 27821 ft 460 kts 309°
2026-04-20 20:46 26.00586 52.10803 27819 ft 460 kts 309°
2026-04-20 20:46 26.02758 52.08173 27814 ft 460 kts 309°
2026-04-20 20:47 26.04920 52.05552 27814 ft 460 kts 309°
2026-04-20 20:47 26.07082 52.02929 27816 ft 460 kts 309°
2026-04-20 20:47 26.09249 52.00299 27812 ft 460 kts 309°
2026-04-20 20:47 26.11389 51.97702 27818 ft 460 kts 309°
2026-04-20 20:48 26.13558 51.95069 27817 ft 461 kts 309°
2026-04-20 20:48 26.15722 51.92438 27817 ft 461 kts 309°
2026-04-20 20:48 26.17891 51.89799 27818 ft 461 kts 309°
2026-04-20 20:48 26.20061 51.87157 27824 ft 461 kts 309°
2026-04-20 20:49 26.22227 51.84521 27822 ft 462 kts 309°
2026-04-20 20:49 26.24392 51.81878 27822 ft 462 kts 308°
2026-04-20 20:49 26.26186 51.79007 27806 ft 455 kts 294°
2026-04-20 20:49 26.27547 51.75831 27843 ft 455 kts 293°
2026-04-20 20:50 26.28918 51.72641 27842 ft 455 kts 293°
2026-04-20 20:50 26.30305 51.69465 27834 ft 456 kts 294°
2026-04-20 20:50 26.31711 51.66286 27839 ft 456 kts 294°
2026-04-20 20:50 26.33120 51.63117 27839 ft 456 kts 294°
2026-04-20 20:51 26.34535 51.59938 27837 ft 456 kts 294°
2026-04-20 20:51 26.35929 51.56808 27825 ft 439 kts 294°
2026-04-20 20:51 26.37241 51.53866 27737 ft 421 kts 294°
2026-04-20 20:51 26.38454 51.50914 27244 ft 413 kts 289°
2026-04-20 20:52 26.39423 51.47944 26885 ft 403 kts 286°
2026-04-20 20:52 26.40297 51.45006 26472 ft 396 kts 286°
2026-04-20 20:52 26.41174 51.42100 26030 ft 394 kts 287°
2026-04-20 20:52 26.42079 51.39211 25605 ft 395 kts 287°
2026-04-20 20:53 26.43002 51.36315 25192 ft 395 kts 287°
2026-04-20 20:53 26.43928 51.33428 24771 ft 395 kts 287°
2026-04-20 20:53 26.44843 51.30572 24375 ft 395 kts 286°
2026-04-20 20:53 26.45346 51.27586 23923 ft 391 kts 271°
2026-04-20 20:54 26.45152 51.24580 23532 ft 388 kts 258°
2026-04-20 20:54 26.44324 51.21724 23123 ft 386 kts 250°
2026-04-20 20:54 26.43304 51.18963 22646 ft 384 kts 248°
2026-04-20 20:54 26.42251 51.16229 22187 ft 381 kts 248°
2026-04-20 20:55 26.41205 51.13517 21724 ft 378 kts 248°
2026-04-20 20:55 26.40181 51.10829 21272 ft 374 kts 248°
2026-04-20 20:55 26.39178 51.08168 20831 ft 370 kts 249°
2026-04-20 20:55 26.38203 51.05563 20397 ft 366 kts 249°
2026-04-20 20:56 26.37229 51.02953 19958 ft 363 kts 249°
2026-04-20 20:56 26.36261 51.00356 19538 ft 359 kts 249°
2026-04-20 20:56 26.35308 50.97798 19125 ft 356 kts 249°
2026-04-20 20:56 26.34358 50.95249 18707 ft 353 kts 249°
2026-04-20 20:57 26.33445 50.92750 18307 ft 350 kts 253°
2026-04-20 20:57 26.33092 50.90089 17830 ft 348 kts 272°
2026-04-20 20:57 26.33531 50.87448 17388 ft 348 kts 287°
2026-04-20 20:57 26.34628 50.85029 16930 ft 352 kts 302°
2026-04-20 20:58 26.36272 50.82985 16492 ft 356 kts 315°
2026-04-20 20:58 26.38398 50.81514 16023 ft 366 kts 332°
2026-04-20 20:58 26.39925 50.80742 15758 ft 360 kts 325°
2026-04-20 20:58 26.41898 50.79090 15301 ft 349 kts 309°
2026-04-20 20:59 26.43209 50.76886 14827 ft 338 kts 286°
2026-04-20 20:59 26.43464 50.74338 14418 ft 330 kts 261°
2026-04-20 20:59 26.42624 50.71981 14005 ft 331 kts 236°
2026-04-20 20:59 26.40869 50.70319 13581 ft 335 kts 210°
2026-04-20 21:00 26.38608 50.69755 13115 ft 338 kts 184°
2026-04-20 21:00 26.36344 50.70439 12733 ft 342 kts 155°
2026-04-20 21:00 26.34616 50.72229 12482 ft 342 kts 127°
2026-04-20 21:00 26.33771 50.74678 12266 ft 336 kts 107°
2026-04-20 21:01 26.32991 50.77055 12020 ft 320 kts 121°
2026-04-20 21:01 26.31946 50.79164 11733 ft 311 kts 127°
2026-04-20 21:01 26.30799 50.81203 11358 ft 310 kts 128°
2026-04-20 21:01 26.29631 50.83214 11000 ft 308 kts 129°
2026-04-20 21:02 26.28466 50.85215 10651 ft 307 kts 128°
2026-04-20 21:02 26.27308 50.87209 10293 ft 305 kts 128°
2026-04-20 21:02 26.26154 50.89185 9939 ft 302 kts 131°
2026-04-20 21:02 26.24638 50.90703 9520 ft 287 kts 160°
2026-04-20 21:03 26.22780 50.91267 9168 ft 272 kts 183°
2026-04-20 21:03 26.20976 50.90993 8812 ft 261 kts 203°
2026-04-20 21:03 26.19412 50.90042 8445 ft 255 kts 222°
2026-04-20 21:03 26.18269 50.88551 8085 ft 253 kts 240°
2026-04-20 21:04 26.17609 50.86752 7729 ft 250 kts 255°
2026-04-20 21:04 26.17470 50.85541 7483 ft 251 kts 269°
2026-04-20 21:04 26.17697 50.83617 7165 ft 248 kts 276°
2026-04-20 21:04 26.17998 50.81729 6807 ft 246 kts 276°
2026-04-20 21:05 26.18328 50.79861 6446 ft 246 kts 284°
2026-04-20 21:05 26.19322 50.78295 6037 ft 258 kts 322°
2026-04-20 21:05 26.20993 50.77661 5685 ft 264 kts 358°
2026-04-20 21:05 26.22743 50.78212 5335 ft 266 kts 34°
2026-04-20 21:06 26.23905 50.79765 4992 ft 263 kts 69°
2026-04-20 21:06 26.24452 50.81681 4695 ft 258 kts 75°
2026-04-20 21:06 26.24943 50.83612 4332 ft 257 kts 77°
2026-04-20 21:06 26.25172 50.85579 3944 ft 254 kts 90°
2026-04-20 21:07 26.24866 50.87478 3535 ft 251 kts 120°
2026-04-20 21:07 26.24223 50.88379 3341 ft 248 kts 138°
2026-04-20 21:08 26.23371 50.89127 3176 ft 244 kts 142°
2026-04-20 21:08 26.21984 50.90204 2829 ft 243 kts 152°
2026-04-20 21:08 26.20384 50.90605 2837 ft 229 kts 171°
2026-04-20 21:08 26.18833 50.90725 2787 ft 217 kts 183°
2026-04-20 21:09 26.17560 50.90044 2777 ft 196 kts 230°
2026-04-20 21:09 26.17176 50.88707 2757 ft 180 kts 283°
2026-04-20 21:09 26.17716 50.87434 2852 ft 188 kts 302°
2026-04-20 21:09 26.18155 50.86087 2837 ft 180 kts 282°
2026-04-20 21:10 26.18373 50.84796 2806 ft 165 kts 283°
2026-04-20 21:10 26.18606 50.83556 2807 ft 161 kts 284°
2026-04-20 21:10 26.18799 50.82332 2811 ft 163 kts 281°
2026-04-20 21:10 26.18947 50.81082 2808 ft 160 kts 278°
2026-04-20 21:11 26.19079 50.79860 2794 ft 158 kts 278°
2026-04-20 21:11 26.19204 50.78639 2811 ft 162 kts 278°
2026-04-20 21:11 26.19354 50.77384 2810 ft 163 kts 285°
2026-04-20 21:11 26.19819 50.76269 2823 ft 157 kts 301°
2026-04-20 21:12 26.20338 50.75198 2818 ft 159 kts 301°
2026-04-20 21:12 26.20926 50.74110 2636 ft 167 kts 304°
2026-04-20 21:12 26.21540 50.73027 2378 ft 164 kts 304°
2026-04-20 21:12 26.22154 50.71955 2111 ft 162 kts 306°
2026-04-20 21:13 26.22755 50.70905 1836 ft 160 kts 306°
2026-04-20 21:13 26.23348 50.69870 1589 ft 156 kts 307°
2026-04-20 21:13 26.23922 50.68869 1308 ft 153 kts 307°
2026-04-20 21:13 26.24486 50.67885 1037 ft 149 kts 307°
2026-04-20 21:14 26.25043 50.66917 739 ft 146 kts 306°
2026-04-20 21:14 26.25559 50.65960 522 ft 142 kts 303°
2026-04-20 21:14 26.26086 50.65061 268 ft 135 kts 307°
2026-04-20 21:14 26.26571 50.64229 72 ft 121 kts 307°
2026-04-20 21:15 26.27001 50.63511 14 ft 98 kts 303°
2026-04-20 21:15 26.27306 50.62982 18 ft 64 kts 302°
2026-04-20 21:15 26.27478 50.62672 18 ft 30 kts 299°
2026-04-20 21:15 26.27539 50.62537 16 ft 17 kts 298°
2026-04-20 21:16 26.27604 50.62429 15 ft 17 kts 303°
2026-04-20 21:16 26.27671 50.62311 16 ft 18 kts 301°
2026-04-20 21:16 26.27737 50.62196 16 ft 18 kts 303°
2026-04-20 21:16 26.27762 50.62084 18 ft 0 kts 261°
2026-04-20 21:17 26.27761 50.62075 16 ft 3 kts 262°
2026-04-20 21:17 26.27757 50.62046 16 ft 5 kts 263°
2026-04-20 21:18 26.27750 50.61998 16 ft 7 kts 261°
2026-04-20 21:18 26.27744 50.61932 16 ft 10 kts 266°
2026-04-20 21:18 26.27701 50.61882 16 ft 11 kts 185°
2026-04-20 21:18 26.27640 50.61934 17 ft 13 kts 130°
2026-04-20 21:19 26.27598 50.61988 16 ft 0 kts 153°
2026-04-20 21:19 26.27597 50.61988 16 ft 0 kts 163°
2026-04-20 21:19 26.27596 50.61987 16 ft 0 kts 180°
2026-04-20 21:20 26.27593 50.61983 16 ft 1 kts 221°
2026-04-20 21:20 26.27575 50.61966 16 ft 6 kts 218°
2026-04-20 21:20 26.27531 50.61928 16 ft 8 kts 214°
2026-04-20 21:20 26.27508 50.61911 17 ft 2 kts 214°
2026-04-20 21:21 26.27503 50.61907 16 ft 0 kts 214°